Regional Weather Roundup
Issued by NWS

Home | Current Version | Previous Version | Text Only | Print | Product List | Glossary On
Versions: 1 2 3 4 5 6 7 8 9 10 11 12 13 14 15 16 17 18 19 20 21 22 23 24 25 26 27 28 29 30 31 32 33 34 35 36 37 38 39 40 41 42 43 44 45 46 47 48 49 50
000
ASUS45 KSLC 300110
RWRUT

UTAH REGIONAL WEATHER ROUNDUP
NATIONAL WEATHER SERVICE SALT LAKE CITY UT
700 PM MDT SUN MAR 29 2015

UTZ001>011-023>025-300200-

NORTHERN UTAH

CITY           SKY/WX    TMP DP  RH WIND       PRES   REMARKS
BRIGHAM CITY   CLEAR     63   6  10 S3        30.21S
HILL AFB       CLEAR     62  16  17 W2        30.21F
LOGAN          CLEAR     64  15  15 NE3       30.19F
OGDEN          CLEAR     64  17  16 CALM      30.20F
PROVO AIRPORT  CLEAR     64  25  22 VRB6      30.18
SALT LAKE CITY PTCLDY    64  11  12 NW12      30.20S
VERNAL         CLEAR     67  15  13 NE3       30.14S
WENDOVER       SUNNY     63  14  15 CALM      30.19F
HEBER CITY     CLEAR     63  18  17 W13       30.19S
WEST JORDAN    CLEAR     61  25  25 NW12      30.21S

$$

UTZ012>022-026-027-300200-

SOUTHERN/CENTRAL UTAH

CITY           SKY/WX    TMP DP  RH WIND       PRES   REMARKS
BLANDING       CLEAR     68  16  13 NW10      30.23S
BRYCE CANYON   MOCLDY    60  24  25 NE8G20    30.28F
CEDAR CITY     CLEAR     71  14  11 CALM      30.15F
DELTA          CLEAR     68   7   9 N5        30.16F
HANKSVILLE     PTCLDY    73  14  10 CALM      30.11S
MILFORD        PTCLDY    69  16  13 N10       30.14F
MOAB/CYNLANDS  CLEAR     73  -4   5 W6        30.09F
PRICE          CLEAR     71   5   7 CALM      30.16S
ST GEORGE      CLEAR     84  27  12 W12       30.02S
KANAB          MOCLDY    73  27  17 W6        30.15S

$$

REGIONAL REPORTS     COLORADO/ARIZONA

CITY           SKY/WX    TMP DP  RH WIND       PRES   REMARKS
CRAIG, CO      PTCLDY    61  19  19 W7        30.18S
GRAND JUNCTION CLEAR     69  10  10 NW7       30.11S
RIFLE          CLEAR     69   9   9 W10       30.12S
MONTROSE       CLEAR     69   8   9 NW13      30.17S
CORTEZ         CLEAR     70  14  11 W10       30.17R
PAGE, AZ       PTCLDY    77  20  12 N6        30.08S
GRAND CANYON   MOCLDY    69  19  15 N3        30.23S
KINGMAN        MOSUNNY   79  21  11 S10       30.06F
FLAGSTAFF      PTCLDY    63  17  17 SW9       30.26S

$$

REGIONAL REPORTS    NEVADA/IDAHO/WYOMING

CITY           SKY/WX    TMP DP  RH WIND       PRES   REMARKS
LAS VEGAS, NV  PTSUNNY   88  15   6 VRB5      29.93F
ELY            PTSUNNY   68  14  12 S8        30.18S
ELKO           MOSUNNY   68   1   7 W3        30.15F
POCATELLO, ID  CLEAR     61  14  16 W12       30.19S
BURLEY         CLEAR     62  17  17 W7        30.17F
EVANSTON, WY   CLEAR     54  15  21 W15       30.27R
ROCK SPRINGS   CLEAR     57   9  14 NW13G24   30.20S
KEMMERER       CLEAR     52  12  20 W15G22    30.26S

$$


USA.gov is the U.S. government's official web portal to all federal, state and local government web resources and services.